Weather History for Rolla, MO

Change the Weather History Date:

Tuesday, September 17, 2013

  Actual Average Record
Temperature  
Mean Temperature 65 °F 67 °F  
Max Temperature 71 °F 78 °F 97 °F (1953)
Min Temperature 58 °F 56 °F 37 °F (1903)
Degree Days  
Heating Degree Days 0 2  
Month to date heating degree days 8 14  
Since 1 July heating degree days 12 17  
Cooling Degree Days 0 4  
Month to date cooling degree days 138 105  
Year to date cooling degree days 1037 1182  
Growing Degree Days 14 (Base 50)    
Moisture  
Dew Point 62 °F    
Average Humidity 92    
Maximum Humidity 100    
Minimum Humidity 84    
Precipitation  
Precipitation 0.18 in 0.14 in 3.43 in (1905)
Month to date precipitation 1.75 2.45  
Year to date precipitation 34.73 32.00  
Sea Level Pressure  
Sea Level Pressure 30.15 in    
Wind  
Wind Speed 6 mph (ESE)    
Max Wind Speed 12 mph    
Max Gust Speed 16 mph    
Visibility 6 miles    
Events Rain    
T = Trace of Precipitation, MM = Missing Value Source: NWS Daily Summary

Daily Weather History Graph

Daily Weather History Graph

Search for Another Location

Airport:

Trip Planner

Search our weather history database for the weather conditions in past years. The results will help you decide how hot, cold, wet, or windy it might be!

Date:

Astronomy

Sep. 17, 2013 Rise Set
Actual Time 6:50 AM CDT 7:11 PM CDT
Civil Twilight 6:24 AM CDT 7:37 PM CDT
Nautical Twilight 5:53 AM CDT 8:08 PM CDT
Astronomical Twilight 5:21 AM CDT 8:40 PM CDT
Moon 5:58 PM CDT 4:47 AM CDT
Length of Visible Light 13h 13m
Length of Day
12h 20m
Waxing Gibbous, 96% of the Moon is Illuminated
Sep 17
Waxing Gibbous
Sep 19
Full
Sep 26
Last Quarter
Oct 4
New
Oct 11
First Quarter

Hourly Weather History & Observations

Time (CDT) Temp. Dew Point Humidity Pressure Visibility Wind Dir Wind Speed Gust Speed Precip Events Conditions
12:53 AM 60.1 °F 57.9 °F 93% 30.21 in 7.0 mi East 5.8 mph - N/A   Overcast
1:03 AM 60.8 °F 57.2 °F 88% 30.21 in 7.0 mi East 8.1 mph - N/A   Overcast
1:53 AM 60.1 °F 57.9 °F 93% 30.21 in 8.0 mi East 5.8 mph - 0.00 in Rain Light Rain
2:53 AM 59.0 °F 57.9 °F 96% 30.20 in 8.0 mi East 8.1 mph - 0.00 in   Overcast
3:18 AM 59.0 °F 57.2 °F 94% 30.20 in 7.0 mi East 8.1 mph - N/A   Overcast
3:53 AM 59.0 °F 57.9 °F 96% 30.18 in 6.0 mi East 6.9 mph - 0.00 in   Overcast
4:33 AM 59.0 °F 57.2 °F 94% 30.19 in 6.0 mi East 6.9 mph - N/A   Overcast
4:53 AM 57.9 °F 57.0 °F 97% 30.17 in 6.0 mi East 6.9 mph - N/A   Overcast
5:25 AM 57.2 °F 57.2 °F 100% 30.19 in 6.0 mi East 6.9 mph - N/A   Overcast
5:45 AM 57.2 °F 57.2 °F 100% 30.19 in 6.0 mi East 8.1 mph - N/A   Overcast
5:53 AM 57.9 °F 57.0 °F 97% 30.18 in 6.0 mi East 8.1 mph - N/A   Overcast
6:53 AM 57.9 °F 57.0 °F 97% 30.19 in 6.0 mi East 8.1 mph - N/A   Overcast
7:53 AM 59.0 °F 57.9 °F 96% 30.18 in 5.0 mi ESE 10.4 mph - N/A   Overcast
8:11 AM 59.0 °F 57.2 °F 94% 30.19 in 5.0 mi ESE 10.4 mph - N/A   Overcast
8:32 AM 60.8 °F 57.2 °F 88% 30.19 in 5.0 mi ESE 10.4 mph - N/A   Overcast
8:53 AM 60.1 °F 59.0 °F 96% 30.19 in 5.0 mi SE 6.9 mph - N/A   Overcast
9:53 AM 63.0 °F 60.1 °F 90% 30.19 in 6.0 mi ESE 9.2 mph - N/A   Overcast
10:12 AM 64.4 °F 60.8 °F 88% 30.20 in 6.0 mi SE 8.1 mph - N/A   Overcast
10:53 AM 66.0 °F 62.1 °F 87% 30.18 in 7.0 mi Variable 4.6 mph - N/A   Mostly Cloudy
11:22 AM 68.0 °F 62.6 °F 83% 30.18 in 9.0 mi SSE 8.1 mph - N/A   Mostly Cloudy
11:53 AM 69.1 °F 64.0 °F 84% 30.17 in 9.0 mi SSE 5.8 mph - N/A   Mostly Cloudy
12:28 PM 69.8 °F 64.4 °F 83% 30.18 in 9.0 mi Calm Calm - N/A   Overcast
12:53 PM 70.0 °F 64.9 °F 84% 30.17 in 9.0 mi SE 3.5 mph - N/A   Overcast
1:39 PM 71.6 °F 64.4 °F 78% 30.17 in 10.0 mi Calm Calm - N/A   Overcast
1:53 PM 70.0 °F 64.9 °F 84% 30.14 in 6.0 mi Calm Calm - 0.01 in Rain Light Rain
2:53 PM 70.0 °F 66.0 °F 87% 30.13 in 6.0 mi Calm Calm - 0.03 in Rain Light Rain
3:27 PM 69.8 °F 66.2 °F 88% 30.14 in 8.0 mi Calm Calm - 0.00 in   Overcast
3:45 PM 69.8 °F 66.2 °F 88% 30.13 in 2.0 mi Calm Calm - 0.02 in Rain Heavy Rain
3:49 PM 69.8 °F 66.2 °F 88% 30.13 in 2.0 mi Calm Calm - 0.03 in Rain Rain
3:53 PM 69.1 °F 66.9 °F 93% 30.12 in 2.5 mi Calm Calm - 0.03 in Rain Rain
3:56 PM 69.8 °F 66.2 °F 88% 30.13 in 3.0 mi Calm Calm - 0.00 in Rain Light Rain
4:22 PM 69.8 °F 66.2 °F 88% 30.12 in 2.5 mi East 3.5 mph - 0.02 in Rain Rain
4:31 PM 68.0 °F 66.2 °F 94% 30.11 in 2.5 mi East 4.6 mph - 0.04 in Rain Rain
4:53 PM 69.1 °F 68.0 °F 96% 30.09 in 3.0 mi ESE 4.6 mph - 0.06 in Rain Light Rain
5:02 PM 69.8 °F 66.2 °F 88% 30.11 in 4.0 mi East 5.8 mph - 0.00 in   Overcast
5:53 PM 68.0 °F 66.9 °F 96% 30.08 in 4.0 mi SE 5.8 mph - 0.00 in   Mostly Cloudy
6:53 PM 68.0 °F 66.9 °F 96% 30.06 in 3.0 mi ESE 4.6 mph - N/A   Mostly Cloudy
7:03 PM 68.0 °F 66.2 °F 94% 30.07 in 2.5 mi East 4.6 mph - N/A   Mostly Cloudy
7:23 PM 68.0 °F 66.2 °F 94% 30.06 in 4.0 mi ESE 6.9 mph - N/A   Mostly Cloudy
7:53 PM 68.0 °F 66.9 °F 96% 30.05 in 5.0 mi SSE 3.5 mph - N/A   Partly Cloudy
8:53 PM 68.0 °F 66.0 °F 93% 30.05 in 5.0 mi SE 5.8 mph - N/A   Partly Cloudy
9:53 PM 68.0 °F 66.0 °F 93% 30.05 in 7.0 mi SE 8.1 mph - N/A   Overcast
10:53 PM 68.0 °F 66.0 °F 93% 30.06 in 8.0 mi SE 6.9 mph - N/A   Overcast
11:53 PM 69.1 °F 66.0 °F 90% 30.04 in 8.0 mi SE 11.5 mph - N/A   Overcast